Location: Newark
(53.3469°N, 7.1606°E)
Time: 20:48:24
(UTC+00:00)

N. Korean satellite - Pass Details

Date: 12 November 2019
Orbit: 455 x 507 km, 97.2° (Epoch: 13 December)

Event Time Altitude Azimuth Distance (km) Brightness Sun altitude
Rises 16:37:11 0° 174° (S) 2,540 10.4 -8.6°
Reaches altitude 10° 16:39:14 10° 178° (S) 1,674 9.5 -8.9°
Maximum altitude 16:42:49 60° 259° (W) 570 7.3 -9.4°
Drops below altitude 10° 16:46:28 10° 340° (NNW) 1,716 9.4 -9.9°
Sets 16:48:36 0° 344° (NNW) 2,612 10.3 -10.2°
